[[{"header":{"parameterUnit":"m.s-1","parameterCategory":2,"la1":30.2991,"la2":30.254,"lo1":-89.0895,"lo2":-89.0444,"dy":0.0017,"dx":0.0017,"nx":28,"ny":28,"refTime":"2024-10-03T09:00:00:Z","depth":"0","parameterNumber":2,"parameterNumberName":"U-component_of_CURRENTS"},"data":[0,0,0,0,0,0,0,0,0,0,0,0,0,0,0,0,0,0,0,0,0,0,0,0,0,0,0,0,0,0,0,0,0,0,0,0,0,0,0,0,0,0,0,0,0,0,0,0,0,0,0,0,0,0,0,0,0,0,0.2927,0.2928,0,0.3021,0.3022,0.3023,0.3039,0.3038,0.3038,0.3037,0.3049,0.305,0.3051,0,0,0,0,0,0,0,0,0,0,0,0,0,0.2735,0.2738,0.2926,0.2928,0.2929,0.3021,0.3022,0.3023,0.3039,0.3038,0.3038,0.3037,0.3049,0.305,0.3051,0,0,0,0,0,0,0,0,0,0,0,0,0,0.282,0.2739,0.2926,0.295,0.2954,0.3021,0.3022,0.3023,0.3039,0.3038,0.3038,0.3037,0.3048,0.3049,0.3051,0.3076,0,0,0.3055,0.3055,0,0,0,0,0,0,0,0,0.2815,0.2827,0.2945,0.2949,0.2953,0.302,0.2959,0.3038,0.3039,0.3004,0.3037,0.3036,0.3034,0.3036,0.3053,0.3076,0.3077,0.3055,0.3055,0.3056,0.3056,0,0,0,0,0,0,0,0.2809,0.2823,0.2961,0.2947,0.2951,0.2948,0.2959,0.2974,0.3019,0.3007,0.3009,0.3024,0.3035,0.3052,0.3054,0.3077,0.3055,0.3056,0.3057,0.3057,0.3119,0.312,0,0,0,0,0,0,0.2806,0.2818,0.2958,0.2964,0.2883,0.2952,0.2965,0.2997,0.3021,0.3025,0.3025,0.3024,0.305,0.3052,0.3054,0.3076,0.3056,0.3057,0.3058,0.3118,0.3119,0.312,0,0,0,0,0,0,0.2802,0.2818,0.2955,0.2894,0.2911,0.2957,0.2993,0.2999,0.3024,0.3035,0.3037,0.3043,0.305,0.3052,0.3075,0.3076,0.3058,0.3059,0.3117,0.3118,0.312,0.3124,0,0,0,0,0,0,0.2796,0.2817,0.2837,0.2894,0.2915,0.2997,0.2994,0.3002,0.3035,0.3036,0.3052,0.3052,0.3049,0.3074,0.3077,0.3077,0.306,0.3116,0.3118,0.3119,0.3123,0.3125,0.3128,0,0,0,0,0,0.2789,0.2822,0.2838,0.2855,0.2942,0.2999,0.3009,0.3035,0.3037,0.3053,0.3064,0.3052,0.3086,0.3076,0.3079,0.308,0.3115,0.3117,0.3119,0.3122,0.3125,0.3128,0,0,0,0,0,0,0.2746,0.2829,0.2847,0.2902,0.2948,0.3002,0.3022,0.3043,0.3069,0.3064,0.307,0.3072,0.3093,0.3093,0.3082,0.3105,0.3096,0.3099,0.3097,0.31,0.3102,0.3142,0.3061,0,0,0,0,0,0.2749,0.2796,0.2864,0.2906,0.293,0.2978,0.3004,0.3025,0.3057,0.3068,0.3079,0.3089,0.3105,0.3107,0.3122,0.3137,0.3207,0.3139,0.3141,0.3143,0.3179,0.3272,0.3287,0.3127,0.3127,0.3127,0,0,0.2743,0.2795,0.282,0.29,0.2935,0.2981,0.2991,0.3034,0.3067,0.3064,0.31,0.3104,0.3115,0.3131,0.3139,0.3128,0.3232,0.3146,0.3147,0.3183,0.3276,0.3292,0.3306,0.3128,0.3128,0.3128,0,0,0.2764,0.2802,0.2854,0.289,0.2953,0.2983,0.2998,0.3055,0.3073,0.3114,0.3115,0.3129,0.3151,0.3158,0.3165,0.3195,0.3248,0.3186,0.3221,0.331,0.3325,0.3338,0.3477,0.3503,0.3178,0.3178,0.3178,0,0.2757,0.2842,0.2872,0.2924,0.2964,0.2986,0.3044,0.3063,0.3116,0.314,0.3125,0.3182,0.3171,0.321,0.3211,0.32,0.3285,0.3203,0.3315,0.333,0.3344,0.3483,0.3511,0.3178,0.3178,0.3178,0.3178,0,0.2836,0.2883,0.2911,0.2991,0.3021,0.3074,0.3107,0.3129,0.3148,0.3176,0.3224,0.3224,0.3265,0.3242,0.3235,0.3313,0.3356,0.3313,0.3309,0.3361,0.3503,0.3533,0.3179,0.3179,0.3179,0.3179,0,0,0.2907,0.2962,0.2974,0.3033,0.3069,0.3131,0.3141,0.3206,0.3277,0.3262,0.3355,0.3331,0.334,0.3352,0.3336,0.3389,0.3542,0.3395,0.3399,0.3539,0.3802,0.3761,0.379,0.3523,0.3527,0.3531,0.3874,0,0.2982,0.309,0.3083,0.3185,0.3263,0.3246,0.3287,0.3321,0.3355,0.3436,0.3402,0.3484,0.3378,0.3429,0.345,0.3534,0.3618,0.3458,0.3729,0.3739,0.3698,0.382,0.368,0.3966,0.3903,0.3908,0.3912,0,0.3106,0.3168,0.3265,0.3351,0.3383,0.3416,0.3522,0.3556,0.36,0.3627,0.3637,0.3655,0.3704,0.3627,0.3776,0.3686,0.3761,0.3809,0.3823,0.3808,0.3751,0.3899,0.4023,0.3856,0.3958,0.3954,0.3951,0,0.3245,0.3318,0.3407,0.3432,0.3504,0.3534,0.3566,0.3616,0.3676,0.376,0.3835,0.3872,0.3943,0.3996,0.4033,0.3952,0.4236,0.4136,0.4181,0.4181,0.4129,0.4115,0.4125,0.4295,0.4294,0.4293,0.4292,0,0.3386,0.3482,0.3477,0.3547,0.3673,0.3662,0.3788,0.382,0.3876,0.3943,0.3947,0.4026,0.4046,0.4161,0.4165,0.4278,0.4345,0.4253,0.4275,0.4127,0.411,0.4011,0.3943,0.4306,0.4303,0.4301,0.4298,0,0.357,0.3553,0.3682,0.3731,0.3744,0.3841,0.3887,0.3947,0.4018,0.4105,0.4139,0.4221,0.4352,0.4398,0.4549,0.4484,0.4461,0.4607,0.4453,0.4447,0.4257,0.4195,0.4202,0.4071,0.4731,0.4732,0.4733,0,0.3695,0.3756,0.3818,0.3827,0.3842,0.3932,0.3944,0.4005,0.4027,0.4184,0.4205,0.4408,0.4454,0.4685,0.4672,0.4767,0.4558,0.4687,0.4465,0.4282,0.4233,0.4045,0.3918,0.4436,0.4434,0.4433,0.4432,0,0.3892,0.3877,0.3922,0.3943,0.3949,0.4001,0.4011,0.4057,0.4085,0.4172,0.4242,0.4329,0.4547,0.4555,0.4712,0.4715,0.4437,0.4661,0.451,0.4055,0.3821,0.369,0.421,0.442,0.4421,0.4422,0.4423,0.4423,0.3983,0.4021,0.398,0.4003,0.4002,0.3974,0.3971,0.3958,0.4,0.4025,0.4172,0.4242,0.4388,0.4562,0.4552,0.4428,0.4387,0.4263,0.424,0.4092,0.383,0.4344,0.4518,0.452,0.4521,0.4522,0.4523,0,0.4011,0.399,0.4009,0.3973,0.3934,0.3952,0.3916,0.3844,0.38,0.3905,0.3956,0.4057,0.4126,0.4198,0.4167,0.4008,0.3812,0.3887,0.3573,0.349,0.4008,0.3848,0.3834,0.3834,0.3834,0.3834,0.3834,0.3835,0.4007,0.3973,0.3952,0.386,0.3828,0.3716,0.3664,0.3581,0.3599,0.3555,0.3583,0.3684,0.3803,0.3885,0.3726,0.3645,0.3311,0.3231,0.3174,0.3505,0.3535,0.3563,0.3391,0.3281,0.3281,0.249,0.2485,0.248]},{"header":{"parameterUnit":"m.s-1","parameterCategory":2,"la1":30.2991,"la2":30.254,"lo1":-89.0895,"lo2":-89.0444,"dy":0.0017,"dx":0.0017,"nx":28,"ny":28,"refTime":"2024-10-03T09:00:00:Z","depth":"0","parameterNumber":3,"parameterNumberName":"V-component_of_CURRENTS"},"data":[0,0,0,0,0,0,0,0,0,0,0,0,0,0,0,0,0,0,0,0,0,0,0,0,0,0,0,0,0,0,0,0,0,0,0,0,0,0,0,0,0,0,0,0,0,0,0,0,0,0,0,0,0,0,0,0,0,0,0.007,0.0069,0,-0.0023,-0.0024,-0.0025,-0.01,-0.0101,-0.0102,-0.0102,-0.0205,-0.0207,-0.0209,0,0,0,0,0,0,0,0,0,0,0,0,0,0.0128,0.0128,0.007,0.0069,0.0068,-0.0022,-0.0024,-0.0025,-0.01,-0.0101,-0.0102,-0.0103,-0.0204,-0.0207,-0.021,0,0,0,0,0,0,0,0,0,0,0,0,0,0.0075,0.0128,0.007,0.0021,0.0016,-0.0022,-0.0024,-0.0026,-0.01,-0.0101,-0.0102,-0.0103,-0.0204,-0.0207,-0.021,-0.021,0,0,-0.022,-0.0221,0,0,0,0,0,0,0,0,0.0078,0.0073,0.0029,0.0024,0.0018,-0.005,-0.0041,-0.0087,-0.01,-0.0058,-0.0102,-0.0103,-0.0152,-0.016,-0.0177,-0.0215,-0.022,-0.022,-0.0222,-0.0223,-0.0224,0,0,0,0,0,0,0,0.0082,0.0076,0.0032,0.0028,0.0022,-0.0015,-0.0023,-0.005,-0.01,-0.0062,-0.0067,-0.0074,-0.0156,-0.0174,-0.018,-0.0221,-0.022,-0.0223,-0.0225,-0.0226,-0.0256,-0.0255,0,0,0,0,0,0,0.01,0.008,0.0035,0.0029,0.0048,-0.0015,-0.0024,-0.0028,-0.01,-0.0111,-0.0074,-0.0078,-0.0168,-0.0176,-0.0184,-0.0162,-0.0223,-0.0226,-0.0228,-0.0257,-0.0255,-0.0254,0,0,0,0,0,0,0.0102,0.0098,0.0039,0.0053,0.0043,-0.0014,-0.0018,-0.0029,-0.0043,-0.0108,-0.012,-0.0075,-0.0169,-0.018,-0.0202,-0.0167,-0.0228,-0.0231,-0.0258,-0.0256,-0.0255,-0.0134,0,0,0,0,0,0,0.0104,0.0099,0.0105,0.0055,0.0043,0.0036,-0.0018,-0.003,-0.0046,-0.0052,-0.0114,-0.0125,-0.0171,-0.0196,-0.0205,-0.0173,-0.0233,-0.026,-0.0257,-0.0255,-0.014,-0.0129,-0.0119,0,0,0,0,0,0.0107,0.0127,0.0106,0.01,0.0053,0.0037,0.0029,-0.0018,-0.0045,-0.0037,-0.0086,-0.0123,-0.0189,-0.0198,-0.0208,-0.0176,-0.0261,-0.0258,-0.0255,-0.0144,-0.0131,-0.0119,0,0,0,0,0,0,0.0153,0.012,0.0096,0.0103,0.0079,0.0025,0.0027,-0.0005,-0.0039,-0.0047,-0.0112,-0.0126,-0.0131,-0.0171,-0.018,-0.0179,-0.0229,-0.0228,-0.0141,-0.0128,-0.0118,-0.0093,-0.0236,0,0,0,0,0,0.0168,0.0174,0.0134,0.014,0.0133,0.0082,0.0069,0.004,0.0002,-0.0014,-0.0058,-0.0102,-0.0128,-0.0142,-0.0175,-0.0174,-0.0186,-0.016,-0.0149,-0.014,-0.0127,-0.0123,-0.011,-0.0246,-0.0246,-0.0246,0,0,0.0183,0.0168,0.0169,0.015,0.0124,0.0134,0.0072,0.0065,0.0072,-0.0018,-0.0021,-0.0067,-0.012,-0.0122,-0.0127,-0.0151,-0.0103,-0.0137,-0.0129,-0.012,-0.0119,-0.0106,-0.0094,-0.0244,-0.0244,-0.0245,0,0,0.0233,0.021,0.0237,0.0226,0.0204,0.0177,0.0183,0.014,0.0122,0.0109,0.0052,0.0027,-0.002,-0.0046,-0.0066,-0.0017,-0.0049,-0.0027,0.0047,0.0051,0.0063,0.0073,0.0103,0.0114,-0.0021,-0.0021,-0.0021,0,0.0253,0.0283,0.0242,0.0268,0.0272,0.0207,0.0242,0.0216,0.0171,0.0171,0.0125,0.0074,0.0019,0.0034,0.0039,0.0009,0.0012,0.0007,0.0067,0.0076,0.0084,0.0112,0.0124,-0.0015,-0.0015,-0.0016,-0.0016,0,0.0328,0.0349,0.0366,0.0378,0.0376,0.0396,0.0361,0.0354,0.0317,0.029,0.0287,0.0212,0.0182,0.0164,0.0107,0.0146,0.0133,0.0082,0.0042,0.0106,0.0131,0.0141,-0.0006,-0.0008,-0.001,-0.0011,0,0,0.0386,0.0416,0.0422,0.0455,0.0441,0.0455,0.0467,0.0473,0.0499,0.0439,0.0476,0.0405,0.0356,0.033,0.0269,0.0262,0.0312,0.0199,0.0197,0.0242,0.035,0.0341,0.035,0.0273,0.0274,0.0276,0.0356,0,0.0461,0.0548,0.0532,0.0609,0.0655,0.0605,0.0629,0.0618,0.0594,0.0609,0.0538,0.0541,0.0425,0.0419,0.0391,0.033,0.0338,0.0297,0.0271,0.0271,0.0264,0.0361,0.0349,0.0419,0.0365,0.0366,0.0367,0,0.0549,0.06,0.0692,0.0747,0.0761,0.0789,0.0826,0.0839,0.0826,0.0808,0.0782,0.072,0.0695,0.0587,0.053,0.051,0.0443,0.0393,0.0394,0.0349,0.0279,0.0338,0.0438,0.0216,0.0382,0.038,0.0379,0,0.0642,0.0715,0.08,0.0817,0.0857,0.0888,0.0909,0.0907,0.0942,0.0947,0.0982,0.0911,0.0917,0.0803,0.0665,0.0605,0.0621,0.0523,0.0467,0.0466,0.0433,0.0426,0.0322,0.0508,0.0508,0.0508,0.0507,0,0.0739,0.0811,0.0854,0.0903,0.1006,0.0994,0.1086,0.1091,0.1119,0.1189,0.1099,0.1161,0.0972,0.0934,0.0764,0.0668,0.0699,0.0516,0.0494,0.0476,0.0473,0.0255,0.0132,0.0511,0.051,0.0509,0.0509,0,0.0836,0.0855,0.0966,0.1032,0.1054,0.1134,0.1204,0.1249,0.1288,0.1384,0.1398,0.1384,0.1347,0.117,0.1031,0.0843,0.0606,0.0676,0.0682,0.0658,0.0351,0.0236,0.0167,0.0056,0.0619,0.062,0.062,0,0.0897,0.0963,0.1069,0.1103,0.1136,0.1232,0.1268,0.1324,0.1383,0.1526,0.1581,0.1615,0.1649,0.1471,0.1163,0.0927,0.0691,0.0725,0.0585,0.0368,0.0224,0.0152,0.0056,0.0603,0.0603,0.0603,0.0603,0,0.0995,0.1027,0.1081,0.1176,0.1231,0.1328,0.141,0.1498,0.1571,0.1697,0.1858,0.1928,0.1812,0.16,0.1284,0.1067,0.0557,0.0719,0.0488,0.0213,0.0136,0.0007,0.0527,0.0604,0.0604,0.0604,0.0604,0.0604,0.1021,0.1077,0.1111,0.1201,0.1274,0.1377,0.1477,0.1585,0.1742,0.1965,0.2046,0.2249,0.1951,0.1544,0.1205,0.059,0.0599,0.0363,0.0254,0.0211,0.006,0.06,0.064,0.064,0.064,0.064,0.064,0,0.0998,0.1035,0.1116,0.1204,0.1288,0.1344,0.1509,0.1631,0.1839,0.2128,0.2323,0.2386,0.1919,0.1433,0.0629,0.0186,0.0,-0.0059,-0.0199,-0.0272,0.0208,0.0157,0.0102,0.0102,0.0102,0.0103,0.0103,0.0103,0.0959,0.0985,0.1036,0.1148,0.1237,0.138,0.149,0.1722,0.1974,0.2366,0.2615,0.2797,0.2478,0.0976,-0.0066,-0.03,-0.0632,-0.0644,-0.0814,-0.0547,-0.0518,-0.0491,-0.0569,-0.0776,-0.0777,-0.1263,-0.1268,-0.1272]}],[{"header":{"parameterUnit":"m.s-1","parameterCategory":2,"la1":30.2991,"la2":30.254,"lo1":-89.0895,"lo2":-89.0444,"dy":0.0017,"dx":0.0017,"nx":28,"ny":28,"refTime":"2024-10-03T09:00:00:Z","depth":"2","parameterNumber":2,"parameterNumberName":"U-component_of_CURRENTS"},"data":[0,0,0,0,0,0,0,0,0,0,0,0,0,0,0,0,0,0,0,0,0,0,0,0,0,0,0,0,0,0,0,0,0,0,0,0,0,0,0,0,0,0,0,0,0,0,0,0,0,0,0,0,0,0,0,0,0,0,0.2208,0.2209,0,0.2267,0.2268,0.2268,0.2311,0.2312,0.2313,0.2313,0.2364,0.2365,0.2366,0,0,0,0,0,0,0,0,0,0,0,0,0,0.2152,0.2153,0.2208,0.2209,0.221,0.2267,0.2268,0.2268,0.2311,0.2312,0.2313,0.2313,0.2364,0.2365,0.2366,0,0,0,0,0,0,0,0,0,0,0,0,0,0.2188,0.2153,0.2208,0.2241,0.2244,0.2267,0.2268,0.2268,0.2311,0.2312,0.2313,0.2314,0.2364,0.2365,0.2366,0.2355,0,0,0.237,0.237,0,0,0,0,0,0,0,0,0.2186,0.2189,0.2235,0.2238,0.2243,0.2285,0.2267,0.2298,0.2311,0.2283,0.2313,0.2314,0.2338,0.2341,0.2347,0.2357,0.2359,0.237,0.237,0.2371,0.2371,0,0,0,0,0,0,0,0.2183,0.2187,0.2229,0.2236,0.2241,0.2259,0.2264,0.2273,0.2302,0.2285,0.2289,0.23,0.234,0.2346,0.2348,0.236,0.237,0.2371,0.2371,0.2372,0.2421,0.2422,0,0,0,0,0,0,0.2179,0.2185,0.2227,0.2231,0.2219,0.2259,0.2265,0.2268,0.2303,0.231,0.2299,0.2302,0.2343,0.2347,0.235,0.2398,0.2371,0.2372,0.2373,0.2421,0.2421,0.2422,0,0,0,0,0,0,0.2177,0.2182,0.2225,0.2212,0.2219,0.2259,0.2262,0.2269,0.2294,0.2313,0.232,0.232,0.2344,0.2349,0.2368,0.2398,0.2373,0.2374,0.242,0.2421,0.2422,0.2455,0,0,0,0,0,0,0.2175,0.2181,0.2187,0.2211,0.222,0.2257,0.2262,0.227,0.2299,0.2304,0.2333,0.2338,0.2345,0.2366,0.2369,0.2399,0.2375,0.2419,0.242,0.2421,0.2454,0.2457,0.2461,0,0,0,0,0,0.2173,0.2185,0.2186,0.2192,0.2224,0.2258,0.2264,0.2294,0.23,0.2318,0.2328,0.2338,0.2376,0.2367,0.2371,0.2402,0.2419,0.242,0.2421,0.2452,0.2457,0.2461,0,0,0,0,0,0,0.2169,0.2191,0.2193,0.2211,0.2238,0.2267,0.2288,0.2301,0.2322,0.2325,0.2338,0.2344,0.2377,0.2377,0.2367,0.2418,0.2402,0.2404,0.2424,0.2429,0.2432,0.2438,0.2376,0,0,0,0,0,0.2167,0.2178,0.2204,0.2219,0.2233,0.2258,0.2277,0.2294,0.2315,0.2327,0.2345,0.2361,0.2382,0.2394,0.241,0.243,0.2461,0.2454,0.2457,0.246,0.2467,0.2526,0.2536,0.2426,0.2426,0.2426,0,0,0.2167,0.2183,0.2188,0.2219,0.2239,0.2263,0.2272,0.2304,0.2323,0.2326,0.2358,0.2375,0.2389,0.2419,0.2434,0.2425,0.2512,0.2462,0.2465,0.247,0.2529,0.254,0.2549,0.2427,0.2427,0.2427,0,0,0.2175,0.2189,0.2201,0.2225,0.2259,0.2277,0.2289,0.2321,0.2338,0.2362,0.2375,0.2405,0.243,0.2452,0.2463,0.2492,0.253,0.2503,0.2527,0.2585,0.2595,0.2604,0.268,0.2696,0.2504,0.2504,0.2504,0,0.2175,0.2195,0.2212,0.2235,0.226,0.2284,0.2308,0.2325,0.236,0.238,0.2377,0.2437,0.2447,0.2493,0.2505,0.2503,0.2549,0.2511,0.2591,0.2601,0.2609,0.2685,0.2702,0.2506,0.2505,0.2505,0.2505,0,0.2193,0.2213,0.2228,0.2258,0.2285,0.2315,0.2341,0.2365,0.2385,0.241,0.2462,0.2475,0.2518,0.2526,0.2523,0.2593,0.2613,0.2592,0.2584,0.2623,0.27,0.2717,0.2508,0.2507,0.2507,0.2506,0,0,0.2193,0.2229,0.2239,0.226,0.2303,0.2332,0.2358,0.2404,0.2446,0.2467,0.2526,0.2549,0.2575,0.2589,0.2599,0.2639,0.2742,0.2645,0.2647,0.2727,0.2899,0.2817,0.2827,0.2743,0.2745,0.2747,0.2937,0,0.2208,0.2244,0.2263,0.231,0.2336,0.2366,0.24,0.2442,0.2482,0.2544,0.2563,0.263,0.2594,0.2638,0.2666,0.2739,0.2784,0.2694,0.2843,0.2848,0.2774,0.2842,0.2612,0.2751,0.2953,0.2956,0.2958,0,0.2232,0.2253,0.2289,0.2346,0.2363,0.2398,0.2475,0.2511,0.2586,0.2618,0.2671,0.2709,0.2785,0.274,0.2868,0.2819,0.286,0.2895,0.2903,0.2823,0.2795,0.2739,0.2775,0.2986,0.2984,0.2982,0.298,0,0.2237,0.2286,0.2314,0.2332,0.2389,0.2422,0.247,0.2544,0.2586,0.2692,0.2752,0.2825,0.2905,0.2948,0.3007,0.2966,0.3144,0.3099,0.3059,0.3056,0.2884,0.286,0.3177,0.3176,0.3176,0.3175,0.3175,0,0.2249,0.2281,0.2323,0.2341,0.2389,0.2446,0.252,0.2568,0.2663,0.2715,0.2806,0.2863,0.2964,0.3059,0.3072,0.3131,0.3204,0.3087,0.3099,0.289,0.2865,0.3073,0.3058,0.3183,0.3181,0.318,0.3178,0,0.2226,0.2264,0.2295,0.2358,0.2386,0.2423,0.2524,0.256,0.269,0.2763,0.2808,0.2957,0.3088,0.317,0.3289,0.3238,0.3286,0.3276,0.3033,0.301,0.3149,0.3134,0.3277,0.3276,0.3274,0.3274,0.3273,0,0.2211,0.2222,0.2278,0.2286,0.2311,0.2383,0.2407,0.2536,0.2574,0.2781,0.2794,0.3003,0.306,0.3241,0.3231,0.3283,0.3312,0.3076,0.2923,0.3162,0.3161,0.3147,0.3134,0.2737,0.2732,0.2728,0.2724,0,0.2152,0.2171,0.2178,0.2206,0.2233,0.2258,0.2326,0.2371,0.251,0.2616,0.275,0.2848,0.3024,0.2991,0.3077,0.3043,0.3046,0.299,0.3337,0.2722,0.2661,0.2656,0.266,0.2687,0.2691,0.2694,0.2696,0.2697,0.2088,0.2063,0.2078,0.2096,0.2119,0.2122,0.2133,0.2202,0.2288,0.24,0.2575,0.2655,0.2754,0.2766,0.2709,0.2683,0.287,0.2738,0.2749,0.2764,0.2642,0.2579,0.2571,0.2573,0.2576,0.2578,0.258,0,0.1989,0.1967,0.1965,0.1966,0.1937,0.2014,0.2045,0.2018,0.2062,0.2198,0.2306,0.2213,0.2247,0.2345,0.2255,0.2264,0.2204,0.2169,0.2082,0.2123,0.2158,0.2001,0.1762,0.1759,0.1756,0.1754,0,0,0.1909,0.1877,0.1869,0.1793,0.1799,0.1738,0.1746,0.1742,0.1804,0.1811,0.1874,0.2099,0.226,0.1972,0.1963,0.1847,0.1948,0.1766,0.2433,0.237,0.24,0.2512,0.232,0,0,0,0,0]},{"header":{"parameterUnit":"m.s-1","parameterCategory":2,"la1":30.2991,"la2":30.254,"lo1":-89.0895,"lo2":-89.0444,"dy":0.0017,"dx":0.0017,"nx":28,"ny":28,"refTime":"2024-10-03T09:00:00:Z","depth":"2","parameterNumber":3,"parameterNumberName":"V-component_of_CURRENTS"},"data":[0,0,0,0,0,0,0,0,0,0,0,0,0,0,0,0,0,0,0,0,0,0,0,0,0,0,0,0,0,0,0,0,0,0,0,0,0,0,0,0,0,0,0,0,0,0,0,0,0,0,0,0,0,0,0,0,0,0,0.0177,0.0176,0,0.0126,0.0125,0.0125,0.0074,0.0073,0.0073,0.0072,-0.0019,-0.0021,-0.0023,0,0,0,0,0,0,0,0,0,0,0,0,0,0.0183,0.0184,0.0177,0.0176,0.0176,0.0126,0.0125,0.0124,0.0074,0.0073,0.0073,0.0072,-0.0019,-0.0021,-0.0023,0,0,0,0,0,0,0,0,0,0,0,0,0,0.016,0.0184,0.0177,0.0146,0.0142,0.0126,0.0125,0.0124,0.0074,0.0073,0.0072,0.0072,-0.0018,-0.0021,-0.0024,-0.0025,0,0,-0.0032,-0.0034,0,0,0,0,0,0,0,0,0.0162,0.016,0.0151,0.0148,0.0144,0.0107,0.0094,0.0073,0.0074,0.0099,0.0072,0.0071,0.0021,0.0015,0.0005,-0.0029,-0.0033,-0.0033,-0.0034,-0.0036,-0.0036,0,0,0,0,0,0,0,0.0163,0.0162,0.0155,0.015,0.0146,0.0118,0.0114,0.009,0.0063,0.0096,0.0093,0.009,0.0018,0.0008,0.0003,-0.0034,-0.0033,-0.0035,-0.0037,-0.0038,-0.0093,-0.0092,0,0,0,0,0,0,0.0176,0.0164,0.0157,0.0154,0.0153,0.0119,0.0115,0.0118,0.0064,0.0056,0.0091,0.0088,0.0014,0.0006,-0.0001,-0.0011,-0.0036,-0.0038,-0.004,-0.0093,-0.0093,-0.0092,0,0,0,0,0,0,0.0177,0.0176,0.0159,0.0158,0.0154,0.012,0.0125,0.0118,0.0107,0.006,0.0051,0.0087,0.0013,0.0003,-0.0021,-0.0015,-0.004,-0.0042,-0.0093,-0.0093,-0.0092,-0.0028,0,0,0,0,0,0,0.0177,0.0177,0.0184,0.0159,0.0155,0.0155,0.0125,0.0118,0.0107,0.0103,0.0054,0.0045,0.0011,-0.0016,-0.0024,-0.0019,-0.0044,-0.0094,-0.0093,-0.0093,-0.003,-0.0025,-0.0021,0,0,0,0,0,0.0178,0.0194,0.0185,0.0184,0.0166,0.0156,0.0151,0.0122,0.0108,0.0108,0.0074,0.0046,-0.0018,-0.0018,-0.0027,-0.0023,-0.0094,-0.0093,-0.0093,-0.0032,-0.0026,-0.0021,0,0,0,0,0,0,0.0196,0.019,0.0179,0.0191,0.0177,0.0148,0.0147,0.0129,0.0103,0.0099,0.0051,0.004,0.002,-0.0008,-0.0007,-0.0038,-0.0061,-0.0063,-0.0013,-0.0007,-0.0003,0.0013,-0.0047,0,0,0,0,0,0.0206,0.0219,0.0201,0.021,0.0206,0.0178,0.0171,0.0154,0.0129,0.0116,0.0083,0.0047,0.0017,0.0,-0.003,-0.0043,-0.007,-0.0048,-0.0043,-0.0039,-0.0032,-0.0066,-0.0064,-0.009,-0.009,-0.009,0,0,0.0214,0.0214,0.0219,0.0215,0.0201,0.0205,0.0171,0.0167,0.0166,0.0111,0.0099,0.0063,0.0017,-0.0001,-0.0013,-0.0024,-0.0044,-0.0038,-0.0034,-0.003,-0.0066,-0.0063,-0.0061,-0.009,-0.009,-0.009,0,0,0.0242,0.0239,0.0258,0.0253,0.0243,0.0228,0.023,0.0206,0.019,0.0177,0.0135,0.0106,0.0064,0.0031,0.0009,0.0023,-0.0018,0.0011,0.0048,0.0015,0.0017,0.0018,-0.0005,-0.0006,0.0014,0.0014,0.0014,0,0.0249,0.0274,0.026,0.0276,0.0277,0.0243,0.0259,0.024,0.0211,0.0202,0.0182,0.0119,0.0079,0.0053,0.0055,0.0034,0.0011,0.0032,0.0022,0.0022,0.0023,-0.0001,-0.0004,0.0017,0.0017,0.0017,0.0016,0,0.0291,0.0307,0.0318,0.033,0.0328,0.0337,0.0314,0.0306,0.0284,0.0263,0.0234,0.018,0.0143,0.0123,0.0092,0.0075,0.0058,0.0032,0.0011,0.003,0.0003,-0.0001,0.0022,0.0021,0.002,0.0019,0,0,0.0313,0.0343,0.0346,0.0363,0.0359,0.0364,0.0363,0.0354,0.0358,0.0317,0.0316,0.0254,0.0225,0.0197,0.0151,0.0119,0.01,0.0083,0.0079,0.0067,0.0035,-0.0003,-0.0011,0.0073,0.0073,0.0072,0.0018,0,0.0347,0.0395,0.0397,0.0435,0.0455,0.0432,0.0436,0.0422,0.04,0.039,0.0328,0.0308,0.0252,0.0238,0.0197,0.0129,0.0093,0.0118,0.0013,0.001,-0.0021,-0.0015,0.0011,-0.0038,0.0015,0.0014,0.0014,0,0.0386,0.0415,0.0461,0.0494,0.05,0.0515,0.0521,0.0523,0.0495,0.0476,0.0441,0.0394,0.0346,0.0293,0.0187,0.0207,0.0128,0.0068,0.0064,0.0004,-0.0034,-0.0051,-0.0046,0.0007,0.0008,0.0008,0.0009,0,0.0414,0.046,0.0501,0.0511,0.0538,0.0553,0.0564,0.055,0.0567,0.0535,0.0546,0.0466,0.0446,0.0335,0.0211,0.0201,0.0091,0.0061,-0.005,-0.0053,-0.0065,-0.0068,-0.0022,-0.0022,-0.0022,-0.0021,-0.0021,0,0.045,0.0484,0.0521,0.0545,0.0595,0.0597,0.0644,0.0634,0.0643,0.0683,0.06,0.0609,0.0456,0.0374,0.0241,0.0092,0.0112,-0.0041,-0.0072,-0.0041,-0.0042,-0.0033,-0.0033,-0.0023,-0.0023,-0.0023,-0.0022,0,0.0472,0.0495,0.0551,0.0595,0.0613,0.0649,0.0711,0.0747,0.0743,0.0794,0.0793,0.0726,0.0622,0.0455,0.0282,0.0146,-0.0006,-0.0071,-0.0021,-0.0046,-0.0134,-0.0131,-0.0191,-0.0193,-0.0194,-0.0196,-0.0197,0,0.0489,0.0519,0.0591,0.0635,0.0659,0.0719,0.0765,0.0788,0.0841,0.0873,0.0909,0.0825,0.0784,0.0509,0.025,0.0007,-0.0021,-0.0139,-0.0164,-0.0129,-0.0153,-0.0147,-0.0141,-0.0148,-0.0148,-0.0149,-0.0149,0,0.0521,0.0545,0.0596,0.0691,0.0754,0.0834,0.0911,0.0978,0.1023,0.1069,0.1125,0.1094,0.0823,0.0582,0.0225,0.0052,-0.01,-0.0158,-0.0131,-0.0114,-0.0095,-0.0116,-0.0111,-0.0154,-0.0153,-0.0153,-0.0153,-0.0152,0.0545,0.0591,0.0668,0.076,0.0841,0.0964,0.1057,0.115,0.1262,0.1354,0.1293,0.1246,0.0938,0.049,0.0187,-0.0137,-0.0131,-0.0237,-0.0233,-0.0229,-0.0219,-0.0204,-0.0281,-0.0281,-0.0282,-0.0282,-0.0282,0,0.0578,0.0643,0.0736,0.086,0.0972,0.1003,0.1164,0.1269,0.1431,0.1467,0.1495,0.12,0.0905,0.0558,0.008,-0.0213,-0.0228,-0.0302,-0.0244,-0.0238,-0.0233,-0.0222,-0.0286,-0.0286,-0.0287,-0.0288,0,0,0.0601,0.0692,0.0753,0.0954,0.1051,0.122,0.1331,0.1471,0.155,0.1601,0.1549,0.1435,0.1008,0.0669,0.0269,0.0005,-0.0047,-0.0056,-0.0025,0.0097,0.0106,-0.0174,-0.0148,0,0,0,0,0]}],[{"header":{"parameterUnit":"m.s-1","parameterCategory":2,"la1":30.2991,"la2":30.254,"lo1":-89.0895,"lo2":-89.0444,"dy":0.0017,"dx":0.0017,"nx":28,"ny":28,"refTime":"2024-10-03T09:00:00:Z","depth":"4","parameterNumber":2,"parameterNumberName":"U-component_of_CURRENTS"},"data":[0,0,0,0,0,0,0,0,0,0,0,0,0,0,0,0,0,0,0,0,0,0,0,0,0,0,0,0,0,0,0,0,0,0,0,0,0,0,0,0,0,0,0,0,0,0,0,0,0,0,0,0,0,0,0,0,0,0,0.1326,0.1326,0,0.1373,0.1373,0.1374,0.1415,0.1416,0.1417,0.1417,0.1481,0.1482,0.1484,0,0,0,0,0,0,0,0,0,0,0,0,0,0.1311,0.1311,0.1326,0.1326,0.1327,0.1373,0.1373,0.1374,0.1415,0.1416,0.1417,0.1417,0.1481,0.1482,0.1484,0,0,0,0,0,0,0,0,0,0,0,0,0,0.1333,0.1311,0.1326,0.1354,0.1357,0.1372,0.1373,0.1374,0.1415,0.1416,0.1417,0.1418,0.148,0.1482,0.1484,0.1478,0,0,0.1489,0.149,0,0,0,0,0,0,0,0,0.1331,0.1333,0.1349,0.1352,0.1355,0.139,0.1392,0.141,0.1415,0.1392,0.1417,0.1418,0.1452,0.1456,0.1462,0.1481,0.1484,0.1489,0.1491,0.1491,0.1492,0,0,0,0,0,0,0,0.133,0.1332,0.1343,0.135,0.1354,0.1378,0.1381,0.1395,0.1417,0.1394,0.1398,0.1404,0.1454,0.146,0.1464,0.1485,0.1489,0.1491,0.1492,0.1493,0.16,0.1602,0,0,0,0,0,0,0.1323,0.133,0.1342,0.1345,0.1346,0.1377,0.1381,0.1377,0.1416,0.1423,0.1403,0.1406,0.1457,0.1462,0.1466,0.1548,0.1491,0.1493,0.1494,0.1598,0.1601,0.1602,0,0,0,0,0,0,0.1322,0.1323,0.134,0.134,0.1344,0.1376,0.1372,0.1378,0.1414,0.1423,0.143,0.1436,0.1457,0.1464,0.1512,0.1547,0.1494,0.1495,0.1596,0.1599,0.1602,0.1655,0,0,0,0,0,0,0.1321,0.1322,0.1335,0.1339,0.1344,0.1369,0.1371,0.1378,0.1414,0.1419,0.1453,0.1458,0.1459,0.151,0.1514,0.1549,0.1497,0.1594,0.1598,0.1601,0.1651,0.1659,0.1666,0,0,0,0,0,0.132,0.1325,0.1335,0.1338,0.1354,0.137,0.1376,0.1401,0.1416,0.1436,0.1466,0.1459,0.1534,0.1513,0.1517,0.1553,0.1592,0.1597,0.16,0.1648,0.1658,0.1666,0,0,0,0,0,0,0.1327,0.133,0.1341,0.1347,0.137,0.1378,0.1403,0.1417,0.1456,0.1472,0.1479,0.1487,0.1543,0.1542,0.1518,0.1595,0.1563,0.1568,0.1598,0.1607,0.1614,0.1605,0.1498,0,0,0,0,0,0.1333,0.134,0.1349,0.1362,0.1374,0.1395,0.1413,0.143,0.1455,0.1474,0.1497,0.1527,0.1558,0.1578,0.1601,0.164,0.1641,0.1668,0.1676,0.1682,0.1679,0.1716,0.1726,0.1616,0.1616,0.1616,0,0,0.134,0.1345,0.1351,0.1366,0.1386,0.1406,0.1409,0.1443,0.1471,0.1475,0.1531,0.1557,0.1575,0.1624,0.1649,0.1631,0.1717,0.1687,0.1692,0.1686,0.1721,0.1731,0.1741,0.1618,0.1618,0.1617,0,0,0.1351,0.1364,0.1374,0.1392,0.1426,0.1438,0.1454,0.1482,0.1511,0.156,0.1576,0.1622,0.1664,0.1685,0.17,0.1762,0.1758,0.1779,0.1809,0.1845,0.1854,0.1862,0.1887,0.1896,0.1781,0.1781,0.1781,0,0.1366,0.1371,0.1384,0.1401,0.1424,0.1454,0.1478,0.1506,0.1552,0.158,0.1589,0.1671,0.169,0.1745,0.1772,0.1779,0.1797,0.1771,0.1854,0.1862,0.1869,0.1892,0.1902,0.1784,0.1784,0.1783,0.1783,0,0.1372,0.1395,0.1407,0.1435,0.1463,0.1491,0.1525,0.1568,0.1607,0.1632,0.1707,0.1738,0.1785,0.1805,0.1808,0.1875,0.1871,0.186,0.1826,0.1883,0.1905,0.1914,0.1788,0.1787,0.1786,0.1786,0,0,0.1356,0.1402,0.141,0.1431,0.1486,0.1501,0.1562,0.1612,0.1653,0.1709,0.1764,0.1825,0.1849,0.1867,0.1887,0.1919,0.199,0.1917,0.1918,0.1935,0.2073,0.1951,0.195,0.2,0.2002,0.2003,0.2071,0,0.1364,0.1394,0.1422,0.1469,0.1487,0.1541,0.1588,0.1644,0.1699,0.176,0.1809,0.1871,0.1871,0.1911,0.1944,0.1987,0.2016,0.1972,0.2022,0.2023,0.1902,0.1956,0.2009,0.2078,0.208,0.2082,0.2083,0,0.1355,0.1378,0.1419,0.148,0.1496,0.1536,0.1619,0.1666,0.1755,0.1803,0.1874,0.1915,0.1992,0.1977,0.2066,0.2044,0.2063,0.208,0.2083,0.1952,0.1917,0.2009,0.2099,0.2098,0.2097,0.2096,0.2095,0,0.1315,0.1375,0.1408,0.1428,0.1501,0.1546,0.1596,0.1684,0.1732,0.1842,0.1896,0.1979,0.2047,0.2083,0.2134,0.2113,0.2217,0.2187,0.2089,0.2081,0.2145,0.2136,0.2233,0.2233,0.2233,0.2232,0.2232,0,0.1288,0.1315,0.1396,0.141,0.1456,0.1528,0.1594,0.1658,0.1762,0.1811,0.1919,0.1972,0.2082,0.2151,0.2164,0.2162,0.2246,0.2098,0.2091,0.2168,0.2161,0.2152,0.2142,0.2235,0.2234,0.2234,0.2234,0,0.1218,0.1279,0.1309,0.1397,0.1435,0.1463,0.1578,0.1611,0.174,0.1815,0.1859,0.2005,0.2093,0.2176,0.2256,0.2198,0.2206,0.218,0.2273,0.227,0.2035,0.2027,0.2062,0.2059,0.2056,0.2053,0.2051,0,0.1177,0.1192,0.1278,0.1294,0.1336,0.1404,0.1443,0.1579,0.162,0.1803,0.1821,0.1976,0.2051,0.208,0.2167,0.2195,0.2166,0.2156,0.2068,0.2028,0.2019,0.2015,0.2012,0.2046,0.2045,0.2044,0.2043,0,0.1087,0.1129,0.1148,0.1189,0.1232,0.1268,0.1348,0.1379,0.1529,0.1667,0.175,0.1817,0.1922,0.1995,0.2055,0.2057,0.2152,0.2122,0.2127,0.2045,0.2009,0.2001,0.2001,0.2032,0.2034,0.2035,0.2036,0,0.1011,0.0998,0.1037,0.1062,0.1103,0.1114,0.1178,0.1248,0.1327,0.1547,0.1567,0.1738,0.1892,0.1924,0.1962,0.1981,0.1935,0.1856,0.1874,0.1887,0.1799,0.1725,0.1659,0,0,0,0,0,0.0928,0.0908,0.0911,0.0927,0.0958,0.0996,0.1098,0.1173,0.1342,0.1354,0.1466,0.1552,0.1648,0.174,0.1723,0.1866,0.1929,0.1835,0.1842,0.1972,0.1984,0.1897,0,0,0,0,0,0,0.0865,0.0862,0.0866,0.081,0.0804,0.0833,0.0896,0.1011,0.1043,0.123,0.1298,0.1442,0.1565,0.1641,0.1688,0.1714,0.1682,0.1948,0.1943,0.1964,0.1976,0.1986,0.1901,0,0,0,0,0]},{"header":{"parameterUnit":"m.s-1","parameterCategory":2,"la1":30.2991,"la2":30.254,"lo1":-89.0895,"lo2":-89.0444,"dy":0.0017,"dx":0.0017,"nx":28,"ny":28,"refTime":"2024-10-03T09:00:00:Z","depth":"4","parameterNumber":3,"parameterNumberName":"V-component_of_CURRENTS"},"data":[0,0,0,0,0,0,0,0,0,0,0,0,0,0,0,0,0,0,0,0,0,0,0,0,0,0,0,0,0,0,0,0,0,0,0,0,0,0,0,0,0,0,0,0,0,0,0,0,0,0,0,0,0,0,0,0,0,0,0.0176,0.0175,0,0.0151,0.015,0.015,0.0132,0.0132,0.0132,0.0132,0.0074,0.0073,0.0072,0,0,0,0,0,0,0,0,0,0,0,0,0,0.0167,0.0167,0.0176,0.0175,0.0175,0.0151,0.015,0.015,0.0132,0.0132,0.0132,0.0132,0.0075,0.0073,0.0071,0,0,0,0,0,0,0,0,0,0,0,0,0,0.0158,0.0167,0.0176,0.0164,0.0163,0.0151,0.015,0.015,0.0132,0.0132,0.0132,0.0132,0.0075,0.0073,0.0071,0.0059,0,0,0.0064,0.0063,0,0,0,0,0,0,0,0,0.0159,0.0159,0.0166,0.0165,0.0163,0.0145,0.0126,0.0118,0.0132,0.0142,0.0132,0.0132,0.0096,0.0092,0.0086,0.0057,0.0054,0.0064,0.0063,0.0062,0.0061,0,0,0,0,0,0,0,0.016,0.0159,0.0165,0.0166,0.0164,0.0146,0.0145,0.0125,0.0119,0.0142,0.014,0.0139,0.0095,0.0089,0.0085,0.0053,0.0064,0.0062,0.0061,0.006,-0.0001,-0.0001,0,0,0,0,0,0,0.0167,0.016,0.0166,0.0164,0.0162,0.0147,0.0145,0.015,0.0119,0.0115,0.0139,0.0139,0.0092,0.0088,0.0083,0.0068,0.0062,0.006,0.0059,-0.0,-0.0001,-0.0001,0,0,0,0,0,0,0.0167,0.0168,0.0167,0.0162,0.0161,0.0147,0.0153,0.015,0.0147,0.0118,0.0113,0.014,0.0092,0.0086,0.0067,0.0065,0.0059,0.0057,0.0,-0.0,-0.0001,0.0037,0,0,0,0,0,0,0.0167,0.0168,0.0175,0.0163,0.0161,0.0164,0.0153,0.0149,0.0147,0.0145,0.0117,0.0112,0.0092,0.007,0.0065,0.0062,0.0055,0.0,-0.0,-0.0001,0.0036,0.0038,0.004,0,0,0,0,0,0.0167,0.0178,0.0176,0.0177,0.0171,0.0165,0.0162,0.0151,0.0147,0.0148,0.0127,0.0113,0.0063,0.0069,0.0062,0.0059,0.0001,0.0,-0.0001,0.0036,0.0038,0.004,0,0,0,0,0,0,0.0174,0.0177,0.0175,0.0185,0.0178,0.0162,0.0164,0.0155,0.014,0.014,0.0112,0.0105,0.0085,0.0066,0.0074,0.0038,0.0028,0.0026,0.0058,0.0059,0.0061,0.0071,0.0053,0,0,0,0,0,0.0181,0.0193,0.0185,0.0194,0.0192,0.0179,0.0176,0.0169,0.0154,0.0148,0.0127,0.0102,0.0077,0.0065,0.0041,0.0025,0.0,0.0017,0.0019,0.002,0.0023,-0.0014,-0.0015,-0.0003,-0.0003,-0.0003,0,0,0.0185,0.0189,0.0195,0.0197,0.019,0.0192,0.0177,0.0176,0.0174,0.0143,0.0134,0.0108,0.0073,0.0054,0.0044,0.0039,0.0002,0.0019,0.0021,0.0023,-0.0015,-0.0016,-0.0017,-0.0004,-0.0003,-0.0003,0,0,0.02,0.0205,0.0218,0.0216,0.0214,0.0205,0.0207,0.0194,0.0187,0.0175,0.0148,0.0124,0.0092,0.0065,0.0047,0.0043,0.0012,0.0033,0.0051,0.0016,0.0014,0.0013,-0.0023,-0.0028,0.0035,0.0035,0.0035,0,0.0203,0.0221,0.0219,0.0228,0.023,0.0214,0.0222,0.0211,0.0192,0.0185,0.0178,0.0124,0.0096,0.0065,0.0063,0.0047,0.0022,0.0049,0.0019,0.0017,0.0015,-0.0022,-0.0028,0.0037,0.0036,0.0036,0.0036,0,0.0224,0.0238,0.0245,0.0255,0.0255,0.026,0.0248,0.0242,0.0231,0.0216,0.0189,0.0149,0.0119,0.0101,0.0081,0.0052,0.0037,0.0026,0.0018,0.0016,-0.0023,-0.003,0.0039,0.0039,0.0038,0.0038,0,0,0.0231,0.0256,0.0259,0.0273,0.0272,0.0276,0.0273,0.0264,0.0265,0.0236,0.0228,0.0178,0.0158,0.0136,0.0102,0.0069,0.0031,0.0046,0.0044,0.0018,-0.005,-0.0056,-0.0064,0.0017,0.0016,0.0015,-0.0072,0,0.0247,0.0277,0.0283,0.0307,0.032,0.031,0.0311,0.0301,0.0285,0.0273,0.0225,0.0206,0.017,0.0159,0.0118,0.0055,0.0016,0.0056,-0.0051,-0.0054,-0.0053,-0.0071,0.0012,-0.0077,-0.0079,-0.008,-0.0081,0,0.0264,0.0285,0.0315,0.0341,0.0346,0.0357,0.0362,0.0361,0.0334,0.0322,0.0289,0.0256,0.0202,0.0176,0.0065,0.0093,0.0026,-0.0027,-0.0032,-0.0054,-0.0072,-0.0077,-0.0093,-0.0092,-0.0091,-0.0091,-0.009,0,0.0276,0.0307,0.0335,0.0343,0.0366,0.0379,0.0389,0.0376,0.039,0.0355,0.036,0.0285,0.0259,0.0164,0.0057,0.0061,-0.0068,-0.0076,-0.015,-0.0152,-0.0135,-0.0133,-0.0159,-0.0159,-0.0159,-0.0159,-0.0158,0,0.0291,0.0315,0.0347,0.0365,0.0405,0.0406,0.0443,0.0435,0.0438,0.0461,0.0392,0.0387,0.0256,0.0172,0.0065,-0.0063,-0.0065,-0.0152,-0.0176,-0.0118,-0.0113,-0.0141,-0.0137,-0.0162,-0.0161,-0.016,-0.016,0,0.0303,0.0319,0.0362,0.0399,0.0416,0.0446,0.0503,0.053,0.0516,0.0543,0.0539,0.0463,0.0346,0.0204,0.0043,-0.0042,-0.0171,-0.0219,-0.015,-0.0168,-0.0233,-0.0227,-0.0306,-0.0306,-0.0307,-0.0308,-0.0309,0,0.0313,0.0334,0.0397,0.0434,0.0459,0.0509,0.0553,0.0569,0.0606,0.0593,0.0613,0.0509,0.0439,0.021,0.0047,-0.0173,-0.0201,-0.0269,-0.0251,-0.0234,-0.0249,-0.0242,-0.0235,-0.031,-0.031,-0.031,-0.031,0,0.0336,0.036,0.0401,0.048,0.0539,0.0606,0.0669,0.0704,0.0722,0.071,0.0681,0.0557,0.0416,0.0225,0.0044,-0.0109,-0.0224,-0.0278,-0.0277,-0.0261,-0.024,-0.0253,-0.0245,-0.0313,-0.0313,-0.0313,-0.0312,0,0.036,0.0396,0.0456,0.0526,0.0604,0.0684,0.0714,0.0759,0.0789,0.0772,0.0759,0.0597,0.05,0.0257,0.0096,-0.0065,-0.0101,-0.0141,-0.0148,-0.0147,-0.0078,-0.0027,-0.0058,0,0,0,0,0,0.038,0.0426,0.0498,0.0583,0.0663,0.0713,0.0786,0.0809,0.0826,0.082,0.0793,0.0663,0.0417,0.0306,0.0146,0.007,-0.0138,-0.0124,-0.0189,-0.0329,-0.0326,-0.0273,0,0,0,0,0,0,0.0396,0.0461,0.0502,0.0616,0.0684,0.0782,0.0834,0.0849,0.0844,0.0828,0.0701,0.0627,0.0386,0.051,0.0144,0.0092,0.0031,-0.0245,-0.0248,-0.0331,-0.0328,-0.0325,-0.027,0,0,0,0,0]}]]